SCP
0 0 0 0 0 0 0 0 0 0 0 1 1 1 1 2 2 2 1 1 0 0 0 0 0 0 0 0 0 0 0 0 0 0 0 0 0 0 0 0 0 0 0 0
0 0 0 0 0 0 0 0 0 0 0 1 1 1 1 2 2 2 1 1 0 0 0 0 0 0 0 0 0 0 0 0 0 0 0 0 0 0 0 0 0 0 0 0
0 0 0 0 0 0 0 0 0 0 0 1 1 1 1 2 2 2 1 1 1 0 0 0 0 0 0 0 0 0 0 0 0 0 0 0 0 0 0 0 0 0 0 0
0 0 0 0 0 0 0 0 0 0 0 1 1 1 1 1 2 2 1 1 1 0 0 0 0 0 0 0 0 0 0 0 0 0 0 0 0 0 0 0 0 0 0 0
0 0 0 0 0 0 0 0 0 0 0 0 0 0 1 1 1 1 1 1 1 0 0 0 0 0 0 0 0 0 0 0 0 0 0 0 0 0 0 0 0 0 0 0
0 0 0 0 0 0 0 0 0 0 0 0 0 0 0 0 1 1 1 1 0 0 0 0 0 0 0 0 0 0 0 0 0 0 0 0 0 0 0 0 0 0 0 0
0 0 0 0 0 0 0 0 0 0 0 0 0 0 0 0 1 1 1 0 0 0 0 0 0 0 0 0 0 0 0 0 0 0 0 0 0 0 0 0 0 0 0 0
0 0 0 0 0 0 0 0 0 0 0 0 0 0 0 0 0 0 0 0 0 0 0 0 0 0 0 0 0 0 0 0 0 0 0 0 0 0 0 0 0 0 0 0
0 0 0 0 0 0 0 0 0 0 0 0 0 0 0 0 0 0 0 0 0 0 0 0 0 0 0 0 0 0 0 0 0 0 0 0 0 0 0 0 0 0 0 0
0 0 0 0 0 0 0 0 0 0 0 0 0 0 0 0 0 0 0 0 0 0 0 0 0 0 0 0 0 0 0 0 0 0 0 0 0 0 0 0 0 0 0 0
0 0 0 0 0 0 0 0 0 0 0 0 0 0 0 0 0 0 0 0 0 0 0 0 0 0 0 0 0 0 0 0 0 0 0 0 0 0 0 0 0 0 0 0
0 0 0 0 0 0 0 0 0 0 0 0 0 0 0 0 0 0 0 0 0 0 0 0 0 0 0 0 0 0 0 0 0 0 0 0 0 0 0 0 0 0 0 0
0 0 0 0 0 0 0 0 0 0 0 0 0 0 0 0 0 0 0 0 0 0 0 0 0 0 0 0 0 0 0 0 0 0 0 0 0 0 0 0 0 0 0 0
0 0 0 0 0 0 0 0 0 0 0 0 0 0 0 0 0 0 0 0 0 0 0 0 0 0 0 0 0 0 0 0 0 0 0 0 0 0 0 0 0 0 0 0
0 0 0 0 0 0 0 0 0 0 0 0 0 0 0 0 0 0 0 0 0 0 0 0 0 0 0 0 0 0 0 0 0 0 0 0 0 0 0 0 0 0 0 0
0 0 0 0 0 0 0 0 0 0 0 0 0 0 0 0 0 0 0 0 0 0 0 0 0 0 0 0 0 0 0 0 0 0 0 0 0 0 0 0 0 0 0 0
0 0 0 0 0 0 0 0 0 0 0 0 0 0 0 0 0 0 0 0 0 0 0 0 0 0 0 0 0 0 0 0 0 0 0 0 0 0 0 0 0 0 0 0
0 0 0 0 0 0 0 0 0 0 0 0 0 0 0 0 0 0 0 0 0 0 0 0 0 0 0 0 0 0 0 0 0 0 0 0 0 0 0 0 0 0 0 0
0 0 0 0 0 0 0 0 0 0 0 0 0 0 0 0 0 0 0 0 0 0 0 0 0 0 0 0 0 0 0 0 0 0 0 0 0 0 0 0 0 0 0 0
0 0 0 0 0 0 0 0 0 0 0 0 0 0 0 0 0 0 0 0 0 0 0 0 0 0 0 0 0 0 0 0 0 0 0 0 0 0 0 0 0 0 0 0
0 0 0 0 0 0 0 0 0 0 0 0 0 0 0 0 0 0 0 0 0 0 0 0 0 0 0 0 0 0 0 0 0 0 0 0 0 0 0 0 0 0 0 0
0 0 0 0 0 0 0 0 0 0 0 0 0 0 0 0 0 0 0 0 0 0 0 0 0 0 0 0 0 0 0 0 0 0 0 0 0 0 0 0 0 0 0 0
0 0 0 0 0 0 0 0 0 0 0 0 0 0 0 0 0 0 0 0 0 0 0 0 0 0 0 0 0 0 0 0 0 0 0 0 0 0 0 0 0 0 0 0
0 0 0 0 0 0 0 0 0 0 0 0 0 0 0 0 0 0 0 0 0 0 0 0 0 0 0 0 0 0 0 0 0 0 0 0 0 0 0 0 0 0 0 0
0 0 0 0 0 0 0 0 0 0 0 0 0 0 0 0 0 0 0 0 0 0 0 0 0 0 0 0 0 0 0 0 0 0 0 0 0 0 0 0 0 0 0 0
0 0 0 0 0 0 0 0 0 0 0 0 0 0 0 0 0 0 0 0 0 0 0 0 0 0 0 0 0 0 0 0 0 0 0 0 0 0 0 0 0 0 0 0
0 0 0 0 0 0 0 0 0 0 0 0 0 0 0 0 0 0 0 0 0 0 0 0 0 0 0 0 0 0 0 0 0 0 0 0 0 0 0 0 0 0 0 0
Wind_Speed
1 1 2 2 2 2 2 4 5 4 4 4 3 4 5 7 8 8 8 8 8 7 6 6 5 4 4 3 2 3 4 3 2 2 2 3 3 3 4 4 5 4 5 6
2 2 3 3 2 2 2 2 2 2 2 1 2 4 6 7 8 8 8 8 8 7 7 7 6 4 3 3 2 3 4 3 3 3 3 3 3 3 4 4 4 5 6 6
0 3 3 2 2 1 1 1 3 3 3 2 3 4 6 7 7 7 8 8 8 7 7 6 6 5 4 3 3 4 3 3 3 3 3 3 3 4 4 4 4 5 5 5
2 3 1 4 1 2 2 1 1 1 2 3 3 3 3 4 6 7 7 7 7 6 6 5 5 5 4 4 4 4 3 3 3 3 2 3 3 3 3 3 3 3 4 5
3 2 1 2 0 2 2 1 1 3 4 3 5 4 2 2 4 6 6 6 6 6 6 6 6 5 5 4 4 4 3 3 3 2 2 2 3 2 2 2 3 3 4 5
4 2 2 4 2 1 3 1 1 4 5 4 4 2 2 3 5 6 6 6 6 6 6 6 5 5 6 5 4 3 3 2 3 3 2 2 1 1 2 2 2 3 4 4
3 2 4 3 2 1 2 5 2 5 6 5 3 3 3 6 6 6 7 7 7 7 6 6 6 6 6 5 4 3 3 3 3 2 2 1 1 1 2 2 3 3 4 4
3 2 4 2 1 3 4 1 3 4 5 4 4 5 6 6 7 8 7 7 7 7 6 5 6 6 6 4 3 3 4 3 2 2 1 2 2 2 2 2 3 3 3 4
5 5 4 1 1 1 2 2 2 4 4 6 6 6 6 6 7 7 7 7 6 7 7 4 4 5 6 4 3 4 4 3 2 2 2 2 2 2 2 2 2 2 2 3
0 2 1 1 0 1 2 2 3 4 6 6 7 7 7 7 6 6 6 6 6 7 7 4 3 4 4 4 4 5 4 2 2 2 2 2 2 1 1 1 1 1 2 2
1 1 1 2 0 1 3 6 6 6 5 6 8 8 7 7 7 6 5 5 6 6 6 5 4 4 3 4 5 4 3 2 2 1 1 1 1 1 0 1 2 2 2 2
5 5 4 3 2 3 5 5 6 7 6 5 7 8 7 7 6 6 6 6 5 5 5 4 4 4 3 3 5 4 3 1 1 1 0 0 1 2 2 2 3 3 4 4
4 3 3 3 3 3 5 5 6 6 7 7 6 7 8 6 6 6 6 7 6 6 5 5 4 3 3 3 4 4 3 2 1 1 1 1 0 1 2 4 4 3 3 4
4 5 3 2 3 4 5 6 6 6 5 6 6 6 7 6 6 6 6 6 6 6 5 5 4 3 3 4 4 4 3 3 2 2 1 1 2 2 2 2 3 4 4 5
2 3 5 5 6 6 6 7 7 5 5 5 5 6 7 7 7 6 6 6 6 5 5 5 4 3 3 4 4 4 3 2 2 2 2 2 2 2 2 2 3 3 4 4
4 6 7 7 7 7 7 7 7 6 5 6 6 6 6 7 6 6 6 7 7 6 5 5 5 4 4 4 4 3 3 4 3 2 2 2 2 2 2 3 3 3 4 4
7 6 6 6 7 6 6 7 7 7 6 7 7 6 6 6 5 5 5 5 6 6 5 5 5 4 4 4 4 3 2 3 3 2 2 3 2 3 3 3 3 4 5 5
6 7 8 9 8 8 7 6 6 7 7 7 7 7 7 7 7 6 6 5 4 3 4 5 5 4 4 4 4 3 3 3 2 3 3 3 3 3 3 4 4 5 5 5
4 6 6 7 7 7 7 7 7 6 6 7 8 8 7 7 6 6 5 6 6 5 5 5 6 5 4 5 5 3 3 3 3 3 3 3 4 3 3 4 5 5 5 5
4 5 6 5 5 6 6 6 6 6 6 7 7 7 6 6 6 6 6 6 6 6 5 5 6 5 5 5 5 4 4 4 4 4 4 3 4 4 4 5 5 5 5 5
5 5 6 5 5 4 5 6 7 7 6 8 8 8 8 6 6 6 6 5 5 5 5 7 5 5 5 5 5 4 4 5 5 5 5 4 5 5 5 5 5 5 5 5
5 5 5 5 4 3 3 5 6 6 6 7 7 7 6 6 6 6 6 6 5 7 6 5 5 6 7 6 4 5 5 5 5 5 5 5 5 6 6 6 6 6 5 5
4 4 5 5 5 4 3 4 5 6 7 7 7 8 7 7 6 6 6 5 5 7 6 5 7 9 9 6 5 5 6 6 6 6 6 6 6 6 6 7 6 6 6 6
4 4 3 3 4 4 3 3 4 4 5 5 6 7 6 5 4 5 5 5 8 8 6 7 10 11 9 5 5 6 6 6 6 6 6 6 6 6 6 7 7 6 7 8
4 4 4 4 4 3 3 3 3 3 3 3 3 5 5 5 5 5 5 6 8 8 6 8 11 11 7 6 6 7 7 7 7 7 7 7 7 7 7 7 7 7 7 7
3 3 3 4 3 3 3 3 3 3 3 3 3 3 4 3 4 4 4 5 7 8 7 6 6 7 7 7 8 8 8 7 8 8 8 8 8 8 8 8 10 8 8 8
3 2 2 1 1 2 3 3 3 3 4 4 4 4 4 4 4 4 5 5 5 6 6 6 6 6 7 8 8 8 8 7 8 8 8 8 8 8 8 10 8 8 8 8
Wind_Direction
144 199 127 112 127 124 135 170 179 217 206 238 214 176 156 144 140 141 144 147 150 148 145 142 138 131 125 117 107 111 108 98 82 63 53 48 37 29 29 30 26 18 19 16
49 47 94 80 51 93 111 135 164 154 232 236 117 120 137 146 152 156 157 158 155 153 150 149 147 140 131 122 114 115 111 98 84 72 60 45 32 34 36 31 21 22 20 14
309 314 54 15 313 168 139 153 165 195 224 134 126 151 162 161 160 163 165 162 161 160 157 155 154 150 147 140 122 110 107 99 87 75 58 41 40 42 34 24 20 19 13 16
92 59 109 255 310 129 112 41 37 113 125 142 146 132 128 151 161 162 162 160 157 152 148 145 143 139 135 126 116 111 105 97 90 82 63 52 52 44 28 21 22 14 8 11
104 102 285 290 269 147 142 280 80 122 111 96 97 79 55 135 150 159 157 151 149 151 146 138 138 139 130 120 115 112 110 102 91 88 80 66 53 37 22 23 22 17 10 13
111 125 221 249 298 160 109 289 176 142 142 142 115 119 233 159 134 131 129 131 135 134 128 131 137 135 128 127 124 127 125 118 105 97 92 75 51 37 25 32 26 22 22 16
121 163 265 271 296 87 134 252 183 157 154 153 165 187 155 129 123 127 126 128 130 129 131 139 137 130 127 128 135 137 122 113 102 93 98 99 62 43 44 44 40 29 18 8
133 148 253 310 101 163 219 230 140 146 145 141 132 115 118 125 127 126 123 124 127 126 125 127 128 126 126 134 140 121 109 98 87 72 72 86 77 55 51 53 46 22 11 3
177 204 242 280 225 236 161 141 143 143 138 136 130 130 126 127 129 127 129 129 128 129 124 119 126 133 139 152 136 121 110 99 83 72 60 65 76 68 49 45 47 16 11 358
175 272 281 309 356 59 114 128 128 133 137 138 138 138 132 132 130 128 127 130 130 128 129 130 131 138 149 149 134 125 120 108 91 83 58 49 59 70 70 30 9 350 342 332
206 251 44 345 50 126 96 95 98 100 113 133 134 136 138 137 136 132 125 126 131 137 141 144 139 141 150 147 135 129 126 116 98 85 73 43 30 9 269 255 228 238 269 274
210 209 177 211 194 138 120 117 122 115 107 114 130 135 135 137 138 135 132 129 130 135 141 146 144 149 157 152 146 142 137 135 137 127 108 89 6 344 326 269 287 256 240 241
189 160 152 142 120 123 126 129 126 125 132 130 128 133 135 133 137 136 135 138 144 150 151 150 149 157 169 157 151 154 163 177 190 206 209 213 232 290 317 324 322 310 293 282
148 121 112 138 141 133 124 121 112 107 114 125 129 131 132 129 133 143 152 156 152 148 148 151 154 174 183 161 158 166 175 190 197 215 224 222 228 236 245 278 308 313 309 298
151 140 145 132 119 116 117 116 116 120 124 121 129 139 144 146 153 162 160 152 145 148 157 160 168 192 184 163 165 175 183 202 210 218 226 232 237 239 245 253 265 281 299 306
118 108 118 126 133 133 131 136 145 156 152 146 148 154 156 154 153 154 155 155 155 169 178 176 188 201 183 169 170 180 202 220 215 214 230 242 250 248 253 257 267 274 279 281
133 142 145 149 156 157 162 167 169 167 162 161 166 159 147 141 142 155 165 171 174 181 184 185 199 201 185 178 180 191 203 226 224 217 232 237 241 248 249 252 262 269 270 264
172 173 170 169 169 169 171 168 164 164 168 170 156 149 153 161 172 179 178 167 163 183 203 202 201 195 191 188 187 193 202 215 217 228 240 243 245 248 252 257 265 270 278 285
149 155 162 168 169 167 169 171 171 170 165 156 158 166 174 179 180 176 166 164 178 204 222 212 201 196 199 204 194 194 205 220 231 237 239 250 253 252 252 258 266 269 272 277
139 143 148 153 155 159 166 167 162 163 166 162 163 166 175 183 178 172 172 189 208 210 202 195 194 200 208 212 204 204 213 225 234 240 240 243 250 258 259 259 263 267 268 267
146 145 145 150 155 162 167 164 163 170 171 169 173 183 189 188 180 174 176 210 229 208 195 193 196 205 210 211 207 212 220 230 237 239 241 245 251 257 261 263 265 265 266 269
144 144 146 145 144 155 165 162 164 166 167 175 183 182 177 181 184 188 203 214 213 194 193 201 207 212 214 211 211 218 227 234 239 239 239 242 246 254 259 260 262 264 265 264
141 145 145 149 157 161 153 159 167 168 174 183 186 186 188 192 186 187 217 222 204 198 198 209 214 216 215 215 218 223 230 235 239 240 241 242 244 247 252 256 256 258 261 262
137 141 147 145 133 131 151 186 182 181 183 188 194 193 187 188 204 215 219 203 196 197 208 218 218 218 214 219 224 228 233 237 241 244 245 246 246 247 249 251 255 256 256 259
142 138 132 131 141 170 187 176 160 169 172 187 201 198 195 196 204 213 207 208 206 203 217 224 221 219 218 225 228 232 236 238 240 241 242 245 248 250 250 250 251 254 255 256
144 153 164 174 179 179 169 159 165 180 180 193 216 213 207 207 209 206 205 213 212 213 219 224 220 217 222 227 232 235 239 242 242 241 241 243 247 249 251 251 253 252 252 253
122 128 132 133 171 175 171 172 180 194 197 200 217 220 211 208 207 212 215 219 218 220 224 226 223 221 224 229 234 237 239 240 241 241 241 242 245 247 249 250 251 251 250 251